Tracking 19817 objects as of 19-Aug-2019
HD Live streaming from Space Station
objects crossing your sky now

TITAN 3C TRANSTAGE DEB

Track TITAN 3C TRANSTAGE DEB now!


NORAD ID: 34172
Int'l Code: 1965-108DF
Perigee: 823.6 km
Apogee: 30,483.0 km
Inclination: 26.8 °
Period: 542.1 minutes
Semi major axis: 22024 km
RCS: 0.0224 m2 (small)
Launch date: December 21, 1965
Source: United States (US)
Launch site: AIR FORCE EASTERN TEST RANGE (AFETR)

Note: This is SATELLITE DEBRIS
aabbcc
Your satellite tracking list
Your tracking list is empty




NASA's NSSDC Master Catalog

Two Line Element Set (TLE):
1 34172U 65108DF  19227.47208545  .00000014  00000-0  29529-2 0  9997
2 34172  26.8092 315.7032 6733345 312.6140  16.9098  2.65613826128299
Source of the keplerian elements: AFSPC